Fairbanks Ft. Wainwright, AK

5:46 AM AKDT on September 22, 2017 (GMT -0800)
Ladd Army Air Field

Weather History for PAFB - December, 2012

Change the Weather History Date:

Saturday, December 29, 2012

  Actual Average Record
Temperature  
Mean Temperature 4 °F -  
Max Temperature 19 °F 0 °F 32 °F (2015)
Min Temperature -11 °F -6 °F -32 °F (2008)
Degree Days  
Heating Degree Days 61    
Moisture  
Dew Point 3 °F    
Average Humidity 85    
Maximum Humidity 92    
Minimum Humidity 76    
Precipitation  
Precipitation 0.00 in - - ()
Sea Level Pressure  
Sea Level Pressure 29.47 in    
Wind  
Wind Speed 1 mph (WSW)    
Max Wind Speed 6 mph    
Max Gust Speed -    
Visibility 8 miles    
Events      
Averages and records for this station are not official NWS values.
T = Trace of Precipitation, MM = Missing Value Source: NWS Daily Summary

Daily Weather History Graph

Daily Weather History Graph

Search for Another Location

Airport or City:

Trip Planner

Search our weather history database for the weather conditions in past years. The results will help you decide how hot, cold, wet, or windy it might be!

Date:

Astronomy

Dec. 29, 2012 Rise Set
Actual Time 10:56 AM AKST 2:49 PM AKST
Civil Twilight 9:33 AM AKST 4:12 PM AKST
Nautical Twilight 8:21 AM AKST 5:24 PM AKST
Astronomical Twilight 7:20 AM AKST 6:25 PM AKST
Moon 5:36 PM AKST (12/29) 10:36 AM AKST (12/29)
Length of Visible Light 6h 39m
Length of Day
3h 53m
Full, 98% of the Moon is Illuminated
Dec 29
Full
Jan 4
Last Quarter
Jan 11
New
Jan 18
First Quarter
Jan 26
Full

Hourly Weather History & Observations

Time (AKST) Temp. Windchill Dew Point Humidity Pressure Visibility Wind Dir Wind Speed Gust Speed Precip Events Conditions
12:56 AM -11.0 °F - -16.1 °F 78% 29.61 in 10.0 mi Calm Calm - N/A   Clear
1:56 AM -9.9 °F - -15.0 °F 78% 29.60 in 10.0 mi Calm Calm - N/A   Clear
2:56 AM -8.0 °F - -13.0 °F 79% 29.57 in 10.0 mi Calm Calm - N/A   Clear
3:56 AM -5.1 °F - -9.0 °F 83% 29.54 in 10.0 mi Calm Calm - N/A   Clear
4:56 AM -2.0 °F - -8.0 °F 76% 29.49 in 10.0 mi Calm Calm - N/A   Clear
5:56 AM 1.9 °F -5.6 °F -2.9 °F 80% 29.42 in 10.0 mi WSW 3.5 mph - N/A   Partly Cloudy
6:56 AM 3.9 °F -3.4 °F -0.0 °F 84% 29.39 in 10.0 mi West 3.5 mph - N/A   Clear
7:56 AM 8.1 °F -0.5 °F 3.0 °F 80% 29.37 in 10.0 mi West 4.6 mph - N/A   Overcast
8:56 AM 10.0 °F - 6.1 °F 84% 29.37 in 10.0 mi Calm Calm - N/A   Mostly Cloudy
9:56 AM 10.9 °F - 7.0 °F 84% 29.35 in 10.0 mi Calm Calm - N/A   Clear
10:56 AM 10.9 °F - 7.0 °F 84% 29.36 in 10.0 mi Calm Calm - N/A   Clear
11:56 AM 9.0 °F - 5.0 °F 84% 29.39 in 10.0 mi Calm Calm - N/A   Clear
12:56 PM 9.0 °F - 5.0 °F 84% 29.38 in 10.0 mi Calm Calm - N/A   Partly Cloudy
1:56 PM 14.0 °F 8.2 °F 10.9 °F 88% 29.43 in 10.0 mi East 3.5 mph - N/A   Overcast
2:56 PM 17.1 °F - 12.9 °F 84% 29.44 in 10.0 mi Calm Calm - N/A   Scattered Clouds
3:56 PM 17.1 °F - 12.9 °F 84% 29.47 in 10.0 mi Calm Calm - N/A   Overcast
4:56 PM 19.0 °F - 15.1 °F 85% 29.51 in 10.0 mi Calm Calm - N/A   Overcast
5:56 PM 19.0 °F - 16.0 °F 88% 29.51 in 10.0 mi Calm Calm - N/A   Overcast
6:56 PM 12.9 °F - 10.0 °F 88% 29.51 in 10.0 mi Calm Calm - N/A   Mostly Cloudy
7:37 PM 10.4 °F - 8.6 °F 92% 29.47 in 1.5 mi Calm Calm - N/A   Clear
7:46 PM 12.2 °F - 8.6 °F 85% 29.47 in 0.8 mi Calm Calm - N/A   Clear
7:51 PM 10.4 °F - 8.6 °F 92% 29.47 in - Calm Calm - N/A   Clear
7:54 PM 10.4 °F - 8.6 °F 92% 29.47 in 1.5 mi Calm Calm - N/A   Clear
7:56 PM 10.0 °F - 8.1 °F 92% 29.51 in 1.0 mi Calm Calm - N/A   Clear
8:01 PM 8.6 °F - 6.8 °F 92% 29.47 in 0.8 mi Calm Calm - N/A   Mist
8:15 PM 6.8 °F - 5.0 °F 92% 29.48 in 1.2 mi Calm Calm - N/A   Partly Cloudy
8:23 PM 6.8 °F - 3.2 °F 85% 29.48 in 10.0 mi Calm Calm - N/A   Partly Cloudy
8:56 PM 7.0 °F - 3.9 °F 87% 29.52 in 10.0 mi Calm Calm - N/A   Clear
9:56 PM 5.0 °F - 1.0 °F 84% 29.51 in 10.0 mi Calm Calm - N/A   Clear
10:56 PM 3.0 °F - -0.0 °F 87% 29.50 in 10.0 mi Calm Calm - N/A   Clear
11:56 PM 3.0 °F -8.0 °F -2.0 °F 80% 29.50 in 10.0 mi East 5.8 mph - N/A   Clear